Regional Weather Roundup
Issued by NWS Huntsville, AL

Home | Current Version | Previous Version | Text Only | Print | Product List | Glossary On
Versions: 1 2 3 4 5 6 7 8 9 10 11 12 13 14 15 16 17 18 19 20 21 22 23 24 25 26 27 28 29 30 31 32 33 34 35 36 37 38 39 40 41 42 43 44 45 46 47 48 49 50
000
ASUS44 KHUN 221110
RWRHUN

WEATHER ROUNDUP FOR THE TENNESSEE VALLEY
NATIONAL WEATHER SERVICE HUNTSVILLE AL
600 AM CDT TUE AUG 22 2017

ALZ001>004-221200-
NORTHWEST ALABAMA

CITY           SKY/WX    TMP DP  RH WIND       PRES   REMARKS
COURTLAND HCN    N/A     72 N/A N/A CALM        N/A
RUSSELLVILLE     N/A     70 N/A N/A MISG        N/A
SHOALS AIRPORT CLEAR     70  67  90 CALM      30.09R
SHOALS TVA RES   N/A     70 N/A N/A MISG        N/A
$$

ALZ005>007-016-221200-
NORTH CENTRAL ALABAMA

CITY           SKY/WX    TMP DP  RH WIND       PRES   REMARKS
CULLMAN AG STN   N/A     68 N/A N/A CALM        N/A
DECATUR AP     CLEAR     69  69 100 CALM      30.09R
HUNTSVILLE AP  PTCLDY    73  72  96 E5        30.09R
MERIDIANVILLE  CLEAR     68  68 100 CALM      30.10R
REDSTONE ARSN  CLEAR     71  70  96 CALM      30.08R
VINEMONT AP    FAIR      68  67  97 CALM      30.13R FOG
$$

ALZ008>010-221200-
NORTHEAST ALABAMA

CITY           SKY/WX    TMP DP  RH WIND       PRES   REMARKS
ALBERTVILLE    CLEAR     70  70 100 CALM      30.11R
FORT PAYNE     CLEAR     66  64  94 CALM      30.11R
SCOTTSBORO HCN   N/A     70 N/A N/A MISG        N/A
$$

TNZ076-096-097-221200-
SOUTHEASTERN MIDDLE TENNESSEE

CITY           SKY/WX    TMP DP  RH WIND       PRES   REMARKS
TULLAHOMA      CLEAR     68  66  94 CALM      30.11S
WINCHESTER     CLEAR     72  70  94 CALM      30.11S
$$

...SURROUNDING SITES...

CITY           SKY/WX    TMP DP  RH WIND       PRES   REMARKS
ATLANTA        CLEAR     74  71  91 CALM      30.13R
ANNISTON       CLEAR     72  70  93 CALM      30.11R
BIRMINGHAM     PTCLDY    75  72  90 CALM      30.11R
CHATTANOOGA    PTCLDY    71  69  93 CALM      30.11R
DALTON         NOT AVBL
GADSDEN        CLEAR     69  69 100 CALM      30.11R FOG
GOLDEN TRNGL   CLEAR     75  72  88 CALM      30.02
HALEYVILLE     FAIR      70  70 100 CALM      30.12S FOG
JACKSON TN     CLEAR     75  74  96 SW7       30.04R
MEMPHIS        PTCLDY    77  73  87 SW6       30.03R
NASHVILLE      PTCLDY    74  69  85 S6        30.06R
OXFORD MS      FAIR      73  72  94 S3        30.08R
ROME           CLEAR     71  71 100 CALM      30.10R
SAVANNAH       PTCLDY    77  73  88 SW6       30.05R
SELMER         CLEAR     75  73  94 CALM      30.05R
TUPELO         CLEAR     74  71  91 CALM      30.06S
TUSCALOOSA     CLEAR     74  74 100 CALM      30.07R FOG
$$

...GULF COAST WEATHER...

CITY           SKY/WX    TMP DP  RH WIND       PRES   REMARKS
GULFPORT       CLEAR     75  73  93 N5        30.04R
PASCAGOULA     PTCLDY    74  72  93 CALM      30.05R
MOBILE         PTCLDY    75  73  93 NE3       30.07R
GULF SHORES    SUNNY     75  75 100 NE8       30.05S
PENSACOLA      PTCLDY    78  75  90 CALM      30.05R
DESTIN         CLEAR     81  74  79 NE5       30.05R
PANAMA CITY    CLEAR     76  74  95 NE5       30.06R
APPALACHICOLA  CLEAR     76  76 100 NE5       30.05R
$$




USA.gov is the U.S. government's official web portal to all federal, state and local government web resources and services.